Location: Bourg-d�Oueil
(42.8588°N, 0.4991°E)
Time: 20:13:46
(UTC+00:00)

Cosmos 1300 - Pass Details

Date: 16 June 2021
Orbit: 509 x 513 km, 82.5° (Epoch: 01 August)

Event Time Altitude Azimuth Distance (km) Brightness Sun altitude
Rises 22:04:18 0° 354° (N) 2,636 7.6 -18.7°
Reaches altitude 10° 22:06:27 10° 356° (N) 1,744 6.4 -18.9°
Maximum altitude 22:10:16 70° 80° (E) 549 2.6 -19.2°
Enters shadow 22:10:54 56° 138° (SE) 614 2.7 -19.2°
